Data No,UTC Date,UTC Time,Latitude,Longitude,Course(deg),Temp(degC),Sal(psu)
760,2022/7/5,12:39,35-35.68N,139-47.09E,206,25.065,27.0293
761,2022/7/5,12:40,35-35.45N,139-47.06E,175,25.175,27.1848
762,2022/7/5,12:41,35-35.26N,139-47.18E,147,25.201,27.1975
763,2022/7/5,12:42,35-35.08N,139-47.37E,132,25.137,27.3285
764,2022/7/5,12:43,35-34.92N,139-47.62E,129,25.12,27.5894
765,2022/7/5,12:44,35-34.75N,139-47.87E,128,25.091,27.9405
766,2022/7/5,12:45,35-34.57N,139-48.15E,128,25.114,28.3033
767,2022/7/5,12:46,35-34.40N,139-48.41E,128,25.063,28.5017
768,2022/7/5,12:47,35-34.22N,139-48.68E,128,25.066,28.6092
769,2022/7/5,12:48,35-34.03N,139-48.97E,128,25.036,28.7608
770,2022/7/5,12:49,35-33.85N,139-49.25E,128,25.012,28.7953
771,2022/7/5,12:50,35-33.67N,139-49.53E,129,25.074,28.8814
772,2022/7/5,12:51,35-33.48N,139-49.81E,128,25.02,28.8965
773,2022/7/5,12:52,35-33.30N,139-50.10E,128,24.936,28.8891
774,2022/7/5,12:53,35-33.10N,139-50.38E,134,24.925,28.9225
775,2022/7/5,12:54,35-32.85N,139-50.54E,161,24.994,28.9876
776,2022/7/5,12:55,35-32.57N,139-50.59E,173,25.081,28.8791
777,2022/7/5,12:56,35-32.28N,139-50.63E,173,25.036,29.048
778,2022/7/5,12:57,35-31.97N,139-50.67E,173,25.01,29.2079
779,2022/7/5,12:58,35-31.68N,139-50.72E,173,24.992,29.3383
780,2022/7/5,12:59,35-31.38N,139-50.76E,173,25.056,29.387
781,2022/7/5,13:00,35-31.08N,139-50.80E,174,25.119,29.3904
782,2022/7/5,13:01,35-30.78N,139-50.84E,173,25.123,29.3653
783,2022/7/5,13:02,35-30.48N,139-50.88E,173,25.302,29.3533
784,2022/7/5,13:03,35-30.16N,139-50.92E,175,25.369,29.3838
785,2022/7/5,13:04,35-29.87N,139-50.89E,187,25.453,29.3511
786,2022/7/5,13:05,35-29.57N,139-50.80E,200,25.463,29.319
787,2022/7/5,13:06,35-29.29N,139-50.65E,203,25.353,29.3458
788,2022/7/5,13:07,35-29.02N,139-50.49E,209,25.419,29.543
789,2022/7/5,13:08,35-28.79N,139-50.22E,230,25.344,29.6477
790,2022/7/5,13:09,35-28.61N,139-49.94E,231,25.311,29.7471
791,2022/7/5,13:10,35-28.42N,139-49.64E,231,25.262,29.8292
792,2022/7/5,13:11,35-28.23N,139-49.34E,231,25.23,29.8491
793,2022/7/5,13:12,35-28.03N,139-49.05E,231,25.194,29.9388
794,2022/7/5,13:13,35-27.84N,139-48.73E,232,25.19,29.9836
795,2022/7/5,13:14,35-27.65N,139-48.45E,232,25.188,30.0553
796,2022/7/5,13:15,35-27.46N,139-48.14E,232,25.181,30.0973
797,2022/7/5,13:16,35-27.26N,139-47.83E,232,25.145,30.1007
798,2022/7/5,13:17,35-27.08N,139-47.53E,232,25.09,30.0775
799,2022/7/5,13:18,35-26.88N,139-47.22E,232,25.03,30.1229
800,2022/7/5,13:19,35-26.69N,139-46.91E,232,24.982,30.1364
801,2022/7/5,13:20,35-26.50N,139-46.61E,232,24.894,30.2036
802,2022/7/5,13:21,35-26.30N,139-46.30E,232,24.891,30.2793
803,2022/7/5,13:22,35-26.11N,139-46.00E,232,24.837,30.3521
804,2022/7/5,13:23,35-25.91N,139-45.68E,232,24.736,30.3909
805,2022/7/5,13:24,35-25.73N,139-45.38E,233,24.547,30.4494
806,2022/7/5,13:25,35-25.53N,139-45.06E,233,24.474,30.5632
807,2022/7/5,13:26,35-25.34N,139-44.75E,233,24.494,30.6342
808,2022/7/5,13:27,35-25.16N,139-44.44E,234,24.486,30.6619
809,2022/7/5,13:28,35-24.97N,139-44.10E,235,24.528,30.7793
810,2022/7/5,13:29,35-24.80N,139-43.79E,236,24.508,30.869
811,2022/7/5,13:30,35-24.62N,139-43.46E,236,24.46,30.9355
812,2022/7/5,13:31,35-24.44N,139-43.15E,229,24.454,31.0374
813,2022/7/5,13:32,35-24.19N,139-42.97E,205,24.448,31.1135
814,2022/7/5,13:33,35-23.90N,139-42.83E,201,24.412,31.1512
815,2022/7/5,13:34,35-23.62N,139-42.69E,202,24.396,31.1832
816,2022/7/5,13:35,35-23.34N,139-42.54E,202,24.395,31.1907
817,2022/7/5,13:36,35-23.05N,139-42.39E,203,24.351,31.2072
818,2022/7/5,13:37,35-22.76N,139-42.32E,182,24.289,31.2244
819,2022/7/5,13:38,35-22.45N,139-42.34E,176,24.109,31.2742
820,2022/7/5,13:39,35-22.16N,139-42.36E,176,23.985,31.3073
821,2022/7/5,13:40,35-21.86N,139-42.38E,176,23.943,31.3433
822,2022/7/5,13:41,35-21.54N,139-42.41E,176,23.882,31.4088
823,2022/7/5,13:42,35-21.24N,139-42.43E,176,23.843,31.4107
824,2022/7/5,13:43,35-20.92N,139-42.45E,177,23.811,31.4473
825,2022/7/5,13:44,35-20.61N,139-42.46E,178,23.761,31.4928
826,2022/7/5,13:45,35-20.33N,139-42.47E,177,23.796,31.5414
827,2022/7/5,13:46,35-20.09N,139-42.43E,191,23.795,31.5674
828,2022/7/5,13:47,35-19.87N,139-42.37E,188,23.586,31.5842
829,2022/7/5,13:48,35-19.69N,139-42.42E,156,23.492,31.6831
830,2022/7/5,13:49,35-19.54N,139-42.55E,144,23.625,31.7661
831,2022/7/5,13:50,35-19.37N,139-42.69E,145,23.73,31.756
832,2022/7/5,13:51,35-19.17N,139-42.86E,145,23.66,31.8733
833,2022/7/5,13:52,35-19.01N,139-43.00E,144,23.528,31.928
834,2022/7/5,13:53,35-18.83N,139-43.15E,143,23.514,31.9505
835,2022/7/5,13:54,35-18.66N,139-43.30E,144,23.543,31.9919
836,2022/7/5,13:55,35-18.48N,139-43.45E,146,23.677,32.0209
837,2022/7/5,13:56,35-18.30N,139-43.61E,144,23.683,32.0052
838,2022/7/5,13:57,35-18.12N,139-43.76E,144,23.704,31.9753
839,2022/7/5,13:58,35-17.94N,139-43.93E,143,23.687,31.978
840,2022/7/5,13:59,35-17.76N,139-44.09E,144,23.653,31.9985
841,2022/7/5,14:00,35-17.59N,139-44.24E,143,23.696,32.0041
842,2022/7/5,14:01,35-17.41N,139-44.40E,143,23.716,32.0254
843,2022/7/5,14:02,35-17.24N,139-44.57E,142,23.708,32.0573
844,2022/7/5,14:03,35-17.06N,139-44.74E,141,23.67,32.0872
845,2022/7/5,14:04,35-16.88N,139-44.91E,141,23.652,32.119
846,2022/7/5,14:05,35-16.71N,139-45.08E,141,23.618,32.1557
847,2022/7/5,14:06,35-16.53N,139-45.25E,140,23.558,32.1817
848,2022/7/5,14:07,35-16.36N,139-45.42E,143,23.49,32.1998
849,2022/7/5,14:08,35-16.17N,139-45.58E,143,23.493,32.2475
850,2022/7/5,14:09,35-15.99N,139-45.74E,143,23.492,32.2774
851,2022/7/5,14:10,35-15.82N,139-45.89E,143,23.505,32.3277
852,2022/7/5,14:11,35-15.64N,139-46.03E,150,23.703,32.3511
853,2022/7/5,14:12,35-15.43N,139-46.12E,166,23.841,32.34
854,2022/7/5,14:13,35-15.21N,139-46.13E,177,23.869,32.2667
855,2022/7/5,14:14,35-15.00N,139-46.15E,175,23.894,32.1623
856,2022/7/5,14:15,35-14.78N,139-46.17E,175,23.907,32.123
857,2022/7/5,14:16,35-14.56N,139-46.19E,175,23.861,32.1095
858,2022/7/5,14:17,35-14.35N,139-46.21E,175,23.793,32.1525
859,2022/7/5,14:18,35-14.13N,139-46.24E,175,23.709,32.2159
860,2022/7/5,14:19,35-13.92N,139-46.25E,176,23.669,32.2556
861,2022/7/5,14:20,35-13.70N,139-46.27E,176,23.607,32.2753
862,2022/7/5,14:21,35-13.48N,139-46.29E,176,23.523,32.2903
863,2022/7/5,14:22,35-13.27N,139-46.31E,176,23.44,32.3182
864,2022/7/5,14:23,35-13.05N,139-46.32E,179,23.384,32.3509
865,2022/7/5,14:24,35-12.84N,139-46.27E,193,23.366,32.3862
866,2022/7/5,14:25,35-12.64N,139-46.21E,194,23.346,32.4256
867,2022/7/5,14:26,35-12.40N,139-46.14E,193,23.23,32.4655
868,2022/7/5,14:27,35-12.13N,139-46.06E,193,23.332,32.5127
869,2022/7/5,14:28,35-11.88N,139-45.99E,193,23.325,32.5901
870,2022/7/5,14:29,35-11.60N,139-45.91E,193,23.22,32.6622
871,2022/7/5,14:30,35-11.33N,139-45.82E,194,23.22,32.7764
872,2022/7/5,14:31,35-11.03N,139-45.73E,194,23.241,32.8748
873,2022/7/5,14:32,35-10.75N,139-45.63E,195,23.132,33.0771
874,2022/7/5,14:33,35-10.45N,139-45.54E,194,23.039,33.2603
875,2022/7/5,14:34,35-10.15N,139-45.44E,195,23.088,33.4204
876,2022/7/5,14:35,35-09.87N,139-45.35E,194,23.149,33.5357
877,2022/7/5,14:36,35-09.57N,139-45.25E,195,23.1,33.5878
878,2022/7/5,14:37,35-09.28N,139-45.15E,195,23.016,33.6315
879,2022/7/5,14:38,35-08.98N,139-45.05E,195,22.98,33.6507
880,2022/7/5,14:39,35-08.69N,139-44.93E,198,23.105,33.6731
881,2022/7/5,14:40,35-08.40N,139-44.81E,199,23.21,33.6843
882,2022/7/5,14:41,35-08.11N,139-44.68E,199,23.199,33.6735
883,2022/7/5,14:42,35-07.81N,139-44.56E,199,23.156,33.6623
884,2022/7/5,14:43,35-07.52N,139-44.43E,199,23.041,33.6404
885,2022/7/5,14:44,35-07.25N,139-44.31E,199,22.954,33.6397
886,2022/7/5,14:45,35-06.95N,139-44.19E,199,22.762,33.6387
887,2022/7/5,14:46,35-06.66N,139-44.06E,199,22.667,33.6455
888,2022/7/5,14:47,35-06.38N,139-43.94E,199,22.595,33.6604
889,2022/7/5,14:48,35-06.08N,139-43.81E,199,22.518,33.6884
890,2022/7/5,14:49,35-05.80N,139-43.69E,200,22.516,33.7173
891,2022/7/5,14:50,35-05.51N,139-43.56E,199,22.499,33.7345
892,2022/7/5,14:51,35-05.21N,139-43.43E,199,22.464,33.748
893,2022/7/5,14:52,35-04.92N,139-43.31E,199,22.428,33.7548
894,2022/7/5,14:53,35-04.64N,139-43.19E,197,22.398,33.7632
895,2022/7/5,14:54,35-04.35N,139-43.09E,195,22.427,33.7649
896,2022/7/5,14:55,35-04.05N,139-42.99E,195,22.41,33.7661
897,2022/7/5,14:56,35-03.76N,139-42.89E,195,22.471,33.7563
898,2022/7/5,14:57,35-03.47N,139-42.80E,194,22.548,33.7513
899,2022/7/5,14:58,35-03.17N,139-42.70E,194,22.625,33.7424
900,2022/7/5,14:59,35-02.87N,139-42.61E,194,22.641,33.7214
901,2022/7/5,15:00,35-02.59N,139-42.52E,193,22.631,33.6971
902,2022/7/5,15:01,35-02.29N,139-42.43E,193,22.668,33.6901
903,2022/7/5,15:02,35-01.99N,139-42.34E,193,22.707,33.6871
904,2022/7/5,15:03,35-01.70N,139-42.25E,193,22.719,33.6739
905,2022/7/5,15:04,35-01.40N,139-42.17E,193,22.75,33.6598
906,2022/7/5,15:05,35-01.10N,139-42.08E,192,22.755,33.6524
907,2022/7/5,15:06,35-00.80N,139-42.00E,192,22.735,33.6502
908,2022/7/5,15:07,35-00.51N,139-41.92E,192,22.639,33.6505
909,2022/7/5,15:08,35-00.21N,139-41.84E,192,22.681,33.6622
910,2022/7/5,15:09,34-59.90N,139-41.75E,192,22.741,33.6692
911,2022/7/5,15:10,34-59.60N,139-41.67E,192,22.866,33.6649
912,2022/7/5,15:11,34-59.29N,139-41.59E,191,23.017,33.6202
913,2022/7/5,15:12,34-58.99N,139-41.53E,185,23.074,33.5854
914,2022/7/5,15:13,34-58.68N,139-41.51E,184,23.173,33.5384
915,2022/7/5,15:14,34-58.35N,139-41.48E,181,23.181,33.4994
916,2022/7/5,15:15,34-58.04N,139-41.49E,178,23.149,33.463
917,2022/7/5,15:16,34-57.72N,139-41.50E,178,23.137,33.4563
918,2022/7/5,15:17,34-57.40N,139-41.51E,179,23.123,33.4731
919,2022/7/5,15:18,34-57.08N,139-41.49E,182,23.123,33.4892
920,2022/7/5,15:19,34-56.76N,139-41.50E,177,23.228,33.5087
921,2022/7/5,15:20,34-56.43N,139-41.52E,176,23.249,33.5616
922,2022/7/5,15:21,34-56.11N,139-41.54E,177,23.261,33.6142
923,2022/7/5,15:22,34-55.78N,139-41.59E,166,23.229,33.6324
924,2022/7/5,15:23,34-55.52N,139-41.78E,144,23.239,33.6595
925,2022/7/5,15:24,34-55.26N,139-42.03E,141,23.295,33.6699
926,2022/7/5,15:25,34-55.00N,139-42.28E,141,23.278,33.6801
927,2022/7/5,15:26,34-54.73N,139-42.54E,141,23.317,33.6964
928,2022/7/5,15:27,34-54.47N,139-42.79E,141,23.361,33.697
929,2022/7/5,15:28,34-54.20N,139-43.05E,141,23.37,33.7067
930,2022/7/5,15:29,34-53.93N,139-43.30E,142,23.345,33.7185
931,2022/7/5,15:30,34-53.67N,139-43.58E,137,23.323,33.7257
932,2022/7/5,15:31,34-53.42N,139-43.85E,137,23.313,33.7411
933,2022/7/5,15:32,34-53.18N,139-44.12E,138,23.344,33.7474
934,2022/7/5,15:33,34-52.93N,139-44.39E,138,23.36,33.7624
935,2022/7/5,15:34,34-52.67N,139-44.68E,138,23.376,33.7713
936,2022/7/5,15:35,34-52.43N,139-44.93E,138,23.389,33.7732
937,2022/7/5,15:36,34-52.18N,139-45.20E,138,23.43,33.7757
938,2022/7/5,15:37,34-51.92N,139-45.47E,139,23.462,33.7697
939,2022/7/5,15:38,34-51.68N,139-45.74E,135,23.469,33.7634
940,2022/7/5,15:39,34-51.47N,139-46.05E,126,23.501,33.7572
941,2022/7/5,15:40,34-51.29N,139-46.38E,121,23.524,33.7587
942,2022/7/5,15:41,34-51.11N,139-46.73E,122,23.56,33.7531
943,2022/7/5,15:42,34-50.93N,139-47.07E,122,23.571,33.7503
944,2022/7/5,15:43,34-50.75N,139-47.40E,122,23.609,33.7392
945,2022/7/5,15:44,34-50.57N,139-47.75E,122,23.654,33.6952
946,2022/7/5,15:45,34-50.39N,139-48.09E,122,23.721,33.7071
947,2022/7/5,15:46,34-50.23N,139-48.46E,115,23.669,33.6945
948,2022/7/5,15:47,34-50.10N,139-48.81E,114,23.617,33.6816
949,2022/7/5,15:48,34-49.97N,139-49.17E,113,23.646,33.6677
950,2022/7/5,15:49,34-49.87N,139-49.55E,103,23.253,33.6548
951,2022/7/5,15:50,34-49.83N,139-49.90E,97,23.035,33.6457
952,2022/7/5,15:51,34-49.78N,139-50.27E,99,22.921,33.6893
953,2022/7/5,15:52,34-49.73N,139-50.63E,100,22.514,33.7018
954,2022/7/5,15:53,34-49.67N,139-50.99E,100,22.284,33.7284
955,2022/7/5,15:54,34-49.62N,139-51.37E,99,21.872,33.7409
956,2022/7/5,15:55,34-49.57N,139-51.72E,99,21.672,33.7729
957,2022/7/5,15:56,34-49.54N,139-52.10E,92,21.34,33.8171
958,2022/7/5,15:57,34-49.55N,139-52.47E,89,21.241,33.8587
959,2022/7/5,15:58,34-49.55N,139-52.84E,89,21.178,33.8987
960,2022/7/5,15:59,34-49.55N,139-53.22E,89,21.155,33.9079
961,2022/7/5,16:00,34-49.55N,139-53.59E,90,20.985,33.9356
962,2022/7/5,16:01,34-49.56N,139-53.97E,86,20.531,33.9467
963,2022/7/5,16:02,34-49.62N,139-54.34E,75,20.128,33.967
964,2022/7/5,16:03,34-49.72N,139-54.67E,69,20.131,34.0348
965,2022/7/5,16:04,34-49.83N,139-55.02E,69,20.175,34.0884
966,2022/7/5,16:05,34-49.94N,139-55.38E,70,20.002,34.0904
967,2022/7/5,16:06,34-50.07N,139-55.70E,61,18.63,34.0862
968,2022/7/5,16:07,34-50.22N,139-56.02E,60,18.849,34.1123
969,2022/7/5,16:08,34-50.37N,139-56.34E,60,19.071,34.1806
970,2022/7/5,16:09,34-50.52N,139-56.67E,60,19.128,34.1811
971,2022/7/5,16:10,34-50.67N,139-57.00E,60,18.864,34.1682
972,2022/7/5,16:11,34-50.83N,139-57.33E,60,18.236,34.1517
973,2022/7/5,16:12,34-50.97N,139-57.63E,60,17.858,34.1322
974,2022/7/5,16:13,34-51.13N,139-57.96E,60,18.121,34.1846
975,2022/7/5,16:14,34-51.28N,139-58.29E,61,18.102,34.1681
976,2022/7/5,16:15,34-51.42N,139-58.61E,61,18.082,34.1686
977,2022/7/5,16:16,34-51.58N,139-58.94E,61,18.354,34.1639
978,2022/7/5,16:17,34-51.72N,139-59.26E,61,18.658,34.1632
979,2022/7/5,16:18,34-51.87N,139-59.58E,60,18.802,34.1296
980,2022/7/5,16:19,34-52.03N,139-59.92E,61,18.984,34.0757
981,2022/7/5,16:20,34-52.18N,140-00.26E,60,19.068,34.0582
982,2022/7/5,16:21,34-52.35N,140-00.61E,59,18.654,34.0255
983,2022/7/5,16:22,34-52.50N,140-00.93E,60,18.568,34.0082
984,2022/7/5,16:23,34-52.65N,140-01.24E,61,18.693,34.0864
985,2022/7/5,16:24,34-52.79N,140-01.53E,60,18.867,34.1075
986,2022/7/5,16:25,34-52.94N,140-01.86E,59,19.062,34.1068
987,2022/7/5,16:26,34-53.11N,140-02.20E,59,19.232,34.0927
988,2022/7/5,16:27,34-53.24N,140-02.48E,59,19.283,34.0781
989,2022/7/5,16:28,34-53.42N,140-02.85E,59,19.351,34.0542
990,2022/7/5,16:29,34-53.56N,140-03.12E,59,19.516,34.0423
991,2022/7/5,16:30,34-53.71N,140-03.44E,61,19.511,34.0397
992,2022/7/5,16:31,34-53.83N,140-03.80E,69,19.483,34.0275
993,2022/7/5,16:32,34-53.93N,140-04.15E,70,19.448,33.9813
994,2022/7/5,16:33,34-54.04N,140-04.51E,69,19.511,33.9851
995,2022/7/5,16:34,34-54.16N,140-04.87E,70,19.68,34.0058
996,2022/7/5,16:35,34-54.26N,140-05.21E,69,19.745,33.9841
997,2022/7/5,16:36,34-54.37N,140-05.57E,69,19.769,33.9569
998,2022/7/5,16:37,34-54.48N,140-05.92E,69,19.786,33.9099
999,2022/7/5,16:38,34-54.58N,140-06.26E,69,19.786,33.8902
1000,2022/7/5,16:39,34-54.70N,140-06.62E,68,19.745,33.9146
1001,2022/7/5,16:40,34-54.81N,140-06.98E,69,19.77,33.9683
1002,2022/7/5,16:41,34-54.92N,140-07.32E,68,19.73,33.981
1003,2022/7/5,16:42,34-55.03N,140-07.67E,69,19.619,33.9942
1004,2022/7/5,16:43,34-55.14N,140-08.03E,69,19.638,34.0287
1005,2022/7/5,16:44,34-55.25N,140-08.38E,69,19.641,34.0614
1006,2022/7/5,16:45,34-55.36N,140-08.72E,69,19.615,34.088
1007,2022/7/5,16:46,34-55.47N,140-09.07E,68,19.602,34.0909
1008,2022/7/5,16:47,34-55.58N,140-09.42E,69,19.615,34.1035
1009,2022/7/5,16:48,34-55.69N,140-09.77E,69,19.571,34.1029
1010,2022/7/5,16:49,34-55.80N,140-10.13E,68,19.491,34.1229
1011,2022/7/5,16:50,34-55.93N,140-10.46E,65,19.339,34.1417
1012,2022/7/5,16:51,34-56.06N,140-10.80E,65,19.39,34.1524
1013,2022/7/5,16:52,34-56.19N,140-11.14E,65,19.221,34.1669
1014,2022/7/5,16:53,34-56.32N,140-11.48E,64,19.048,34.1738
1015,2022/7/5,16:54,34-56.45N,140-11.81E,64,18.801,34.1814
1016,2022/7/5,16:55,34-56.58N,140-12.13E,64,18.792,34.1762
1017,2022/7/5,16:56,34-56.71N,140-12.46E,64,18.956,34.2158
1018,2022/7/5,16:57,34-56.84N,140-12.80E,65,19.028,34.2295
1019,2022/7/5,16:58,34-56.97N,140-13.12E,64,19.093,34.231
1020,2022/7/5,16:59,34-57.10N,140-13.45E,63,19.164,34.2311
1021,2022/7/5,17:00,34-57.24N,140-13.79E,64,19.28,34.2233
1022,2022/7/5,17:01,34-57.37N,140-14.12E,63,19.385,34.2189
1023,2022/7/5,17:02,34-57.51N,140-14.46E,64,19.333,34.2083
1024,2022/7/5,17:03,34-57.64N,140-14.79E,65,19.182,34.1995
1025,2022/7/5,17:04,34-57.77N,140-15.14E,64,19.09,34.2059
1026,2022/7/5,17:05,34-57.90N,140-15.47E,64,19.184,34.2207
1027,2022/7/5,17:06,34-58.04N,140-15.81E,65,19.292,34.2237
1028,2022/7/5,17:07,34-58.17N,140-16.16E,64,19.255,34.2124
1029,2022/7/5,17:08,34-58.30N,140-16.49E,64,19.286,34.2027
1030,2022/7/5,17:09,34-58.43N,140-16.84E,64,19.209,34.1941
1031,2022/7/5,17:10,34-58.56N,140-17.18E,64,19.118,34.1861
1032,2022/7/5,17:11,34-58.70N,140-17.52E,64,19.072,34.191
1033,2022/7/5,17:12,34-58.84N,140-17.87E,64,18.894,34.1909
1034,2022/7/5,17:13,34-58.97N,140-18.20E,64,18.936,34.2026
1035,2022/7/5,17:14,34-59.10N,140-18.55E,65,18.975,34.2199
1036,2022/7/5,17:15,34-59.23N,140-18.89E,65,18.873,34.2116
1037,2022/7/5,17:16,34-59.36N,140-19.23E,65,18.839,34.2098
1038,2022/7/5,17:17,34-59.49N,140-19.58E,65,18.706,34.2132
1039,2022/7/5,17:18,34-59.62N,140-19.92E,65,18.589,34.202
1040,2022/7/5,17:19,34-59.76N,140-20.28E,65,18.492,34.2108
1041,2022/7/5,17:20,34-59.88N,140-20.61E,62,18.309,34.2103
1042,2022/7/5,17:21,35-00.06N,140-20.93E,53,18.143,34.2262
1043,2022/7/5,17:22,35-00.25N,140-21.23E,53,18.103,34.2134
1044,2022/7/5,17:23,35-00.43N,140-21.53E,54,18.083,34.2147
1045,2022/7/5,17:24,35-00.63N,140-21.83E,48,18.091,34.2135
1046,2022/7/5,17:25,35-00.85N,140-22.10E,45,17.884,34.1977
1047,2022/7/5,17:26,35-01.07N,140-22.38E,46,17.757,34.169
1048,2022/7/5,17:27,35-01.28N,140-22.65E,46,17.63,34.1616
1049,2022/7/5,17:28,35-01.49N,140-22.93E,47,17.678,34.166
1050,2022/7/5,17:29,35-01.72N,140-23.22E,47,17.715,34.1604
1051,2022/7/5,17:30,35-01.92N,140-23.49E,47,17.535,34.1633
1052,2022/7/5,17:31,35-02.14N,140-23.77E,46,17.358,34.1695
1053,2022/7/5,17:32,35-02.36N,140-24.06E,47,17.469,34.1981
1054,2022/7/5,17:33,35-02.57N,140-24.33E,46,17.379,34.1979
1055,2022/7/5,17:34,35-02.79N,140-24.62E,46,17.213,34.2041
1056,2022/7/5,17:35,35-03.01N,140-24.90E,47,17.14,34.2027
1057,2022/7/5,17:36,35-03.22N,140-25.17E,47,17.086,34.2081
1058,2022/7/5,17:37,35-03.44N,140-25.46E,46,17.128,34.2292
1059,2022/7/5,17:38,35-03.65N,140-25.74E,46,16.845,34.2302
1060,2022/7/5,17:39,35-03.87N,140-26.02E,46,16.494,34.2259
1061,2022/7/5,17:40,35-04.09N,140-26.30E,47,16.472,34.2259
1062,2022/7/5,17:41,35-04.30N,140-26.58E,45,16.383,34.2596
1063,2022/7/5,17:42,35-04.53N,140-26.87E,46,16.51,34.257
1064,2022/7/5,17:43,35-04.74N,140-27.15E,46,16.611,34.2656
1065,2022/7/5,17:44,35-04.97N,140-27.44E,46,16.782,34.2649
1066,2022/7/5,17:45,35-05.19N,140-27.71E,46,16.853,34.26
1067,2022/7/5,17:46,35-05.41N,140-27.99E,45,17.078,34.2511
1068,2022/7/5,17:47,35-05.65N,140-28.28E,45,17.312,34.2534
1069,2022/7/5,17:48,35-05.87N,140-28.55E,46,17.435,34.2602
1070,2022/7/5,17:49,35-06.09N,140-28.84E,46,17.559,34.2626
1071,2022/7/5,17:50,35-06.33N,140-29.14E,46,17.697,34.2608
1072,2022/7/5,17:51,35-06.54N,140-29.41E,45,17.795,34.2676
1073,2022/7/5,17:52,35-06.77N,140-29.70E,46,17.909,34.2613
1074,2022/7/5,17:53,35-07.00N,140-29.99E,46,18.005,34.2664
1075,2022/7/5,17:54,35-07.23N,140-30.27E,46,18.187,34.2646
1076,2022/7/5,17:55,35-07.45N,140-30.55E,45,18.236,34.2642
1077,2022/7/5,17:56,35-07.68N,140-30.83E,45,18.315,34.2636
1078,2022/7/5,17:57,35-07.91N,140-31.10E,41,18.216,34.2561
1079,2022/7/5,17:58,35-08.15N,140-31.35E,41,18.277,34.2506
1080,2022/7/5,17:59,35-08.41N,140-31.58E,33,18.312,34.251
1081,2022/7/5,18:00,35-08.66N,140-31.78E,32,18.345,34.2519
1082,2022/7/5,18:01,35-08.94N,140-31.99E,32,18.281,34.2534
1083,2022/7/5,18:02,35-09.20N,140-32.19E,32,18.294,34.2546
1084,2022/7/5,18:03,35-09.47N,140-32.39E,32,18.331,34.2527
1085,2022/7/5,18:04,35-09.74N,140-32.61E,32,18.368,34.2576
1086,2022/7/5,18:05,35-10.00N,140-32.81E,32,18.383,34.2539
1087,2022/7/5,18:06,35-10.27N,140-33.01E,32,18.419,34.2528
1088,2022/7/5,18:07,35-10.54N,140-33.22E,32,18.218,34.2458
1089,2022/7/5,18:08,35-10.80N,140-33.42E,32,18.148,34.2266
1090,2022/7/5,18:09,35-11.07N,140-33.62E,32,18.138,34.2295
1091,2022/7/5,18:10,35-11.34N,140-33.83E,31,18.119,34.2323
1092,2022/7/5,18:11,35-11.60N,140-34.03E,31,18.041,34.2362
1093,2022/7/5,18:12,35-11.87N,140-34.23E,31,18.147,34.2492
1094,2022/7/5,18:13,35-12.13N,140-34.43E,31,18.115,34.2502
1095,2022/7/5,18:14,35-12.41N,140-34.64E,32,18.134,34.2476
1096,2022/7/5,18:15,35-12.67N,140-34.84E,32,18.105,34.2502
1097,2022/7/5,18:16,35-12.92N,140-35.06E,36,18.162,34.2525
1098,2022/7/5,18:17,35-13.17N,140-35.29E,36,18.036,34.2495
1099,2022/7/5,18:18,35-13.42N,140-35.52E,37,17.991,34.2474
1100,2022/7/5,18:19,35-13.67N,140-35.75E,36,18.04,34.2573
1101,2022/7/5,18:20,35-13.91N,140-35.98E,40,18.072,34.2575
1102,2022/7/5,18:21,35-14.14N,140-36.24E,42,17.979,34.2539
1103,2022/7/5,18:22,35-14.35N,140-36.52E,48,18.069,34.2549
1104,2022/7/5,18:23,35-14.55N,140-36.79E,47,18.095,34.2519
1105,2022/7/5,18:24,35-14.77N,140-37.08E,48,18.084,34.2566
1106,2022/7/5,18:25,35-14.97N,140-37.34E,46,18.141,34.2562
1107,2022/7/5,18:26,35-15.18N,140-37.61E,46,18.155,34.2513
1108,2022/7/5,18:27,35-15.39N,140-37.90E,47,18.187,34.2575
1109,2022/7/5,18:28,35-15.59N,140-38.17E,47,18.234,34.2535
1110,2022/7/5,18:29,35-15.83N,140-38.47E,43,18.259,34.2597
1111,2022/7/5,18:30,35-16.07N,140-38.73E,41,18.234,34.2546
1112,2022/7/5,18:31,35-16.29N,140-38.98E,42,18.217,34.2506
1113,2022/7/5,18:32,35-16.49N,140-39.20E,42,18.209,34.2553
1114,2022/7/5,18:33,35-16.72N,140-39.43E,38,18.223,34.2521
1115,2022/7/5,18:34,35-16.97N,140-39.66E,36,18.253,34.2542
1116,2022/7/5,18:35,35-17.22N,140-39.88E,35,18.232,34.2529
1117,2022/7/5,18:36,35-17.46N,140-40.10E,36,18.232,34.2512
1118,2022/7/5,18:37,35-17.72N,140-40.33E,36,18.242,34.2545
1119,2022/7/5,18:38,35-17.96N,140-40.55E,37,18.275,34.2544
1120,2022/7/5,18:39,35-18.21N,140-40.78E,38,18.275,34.2499
1121,2022/7/5,18:40,35-18.45N,140-41.01E,37,18.278,34.2496
1122,2022/7/5,18:41,35-18.69N,140-41.24E,36,18.282,34.2511
1123,2022/7/5,18:42,35-18.94N,140-41.47E,37,18.267,34.2521
1124,2022/7/5,18:43,35-19.18N,140-41.70E,38,18.268,34.2587
1125,2022/7/5,18:44,35-19.43N,140-41.93E,38,18.329,34.2628
1126,2022/7/5,18:45,35-19.66N,140-42.15E,37,18.324,34.2649
1127,2022/7/5,18:46,35-19.91N,140-42.38E,35,18.375,34.2582
1128,2022/7/5,18:47,35-20.18N,140-42.57E,30,18.341,34.254
1129,2022/7/5,18:48,35-20.43N,140-42.77E,32,18.305,34.2519
1130,2022/7/5,18:49,35-20.70N,140-42.97E,32,18.291,34.2563
1131,2022/7/5,18:50,35-20.95N,140-43.16E,31,18.325,34.2665
1132,2022/7/5,18:51,35-21.21N,140-43.36E,32,18.314,34.2784
1133,2022/7/5,18:52,35-21.48N,140-43.56E,32,18.409,34.2768
1134,2022/7/5,18:53,35-21.73N,140-43.76E,32,18.44,34.2761
1135,2022/7/5,18:54,35-21.99N,140-43.97E,32,18.47,34.2758
1136,2022/7/5,18:55,35-22.25N,140-44.17E,33,18.506,34.277
1137,2022/7/5,18:56,35-22.50N,140-44.38E,33,18.597,34.2735
1138,2022/7/5,18:57,35-22.77N,140-44.59E,33,18.611,34.2657
1139,2022/7/5,18:58,35-23.02N,140-44.79E,33,18.498,34.2637
1140,2022/7/5,18:59,35-23.28N,140-45.00E,32,18.333,34.2673
1141,2022/7/5,19:00,35-23.54N,140-45.20E,33,18.378,34.2772
1142,2022/7/5,19:01,35-23.80N,140-45.41E,33,18.303,34.2884
1143,2022/7/5,19:02,35-24.05N,140-45.64E,39,18.508,34.2745
1144,2022/7/5,19:03,35-24.29N,140-45.87E,40,18.52,34.2819
1145,2022/7/5,19:04,35-24.53N,140-46.12E,39,18.519,34.2718
1146,2022/7/5,19:05,35-24.76N,140-46.35E,39,18.528,34.2766
1147,2022/7/5,19:06,35-25.00N,140-46.59E,39,18.552,34.2818
1148,2022/7/5,19:07,35-25.24N,140-46.82E,38,18.488,34.2767
1149,2022/7/5,19:08,35-25.48N,140-47.05E,39,18.397,34.2541
1150,2022/7/5,19:09,35-25.72N,140-47.29E,38,18.363,34.2377
1151,2022/7/5,19:10,35-25.96N,140-47.52E,37,18.451,34.2222
1152,2022/7/5,19:11,35-26.19N,140-47.74E,38,18.534,34.2237
1153,2022/7/5,19:12,35-26.44N,140-47.98E,37,18.693,34.2228
1154,2022/7/5,19:13,35-26.68N,140-48.21E,38,18.483,34.209
1155,2022/7/5,19:14,35-26.92N,140-48.43E,37,18.316,34.1866
1156,2022/7/5,19:15,35-27.15N,140-48.66E,38,17.961,34.1837
1157,2022/7/5,19:16,35-27.39N,140-48.89E,38,17.943,34.1921
1158,2022/7/5,19:17,35-27.63N,140-49.13E,37,17.965,34.2098
1159,2022/7/5,19:18,35-27.87N,140-49.35E,38,18.009,34.2301